Dati Storici

Data ora Umidita' aria (%) Temperatura aria (°C) Rad globale (W/m²) Gonioanemometro (°) Tacoanemometro (m/s) Pioggia (mm)
25-06-2020 11:30 72.8 % 25.012 70.024 0.843 0 0
25-06-2020 11:20 75.3 % 23.806 1.89 1.495 0 0
25-06-2020 11:10 75.2 % 23.34 16.55 3.342 0 0
25-06-2020 11:00 76.1 % 23.186 7.124 2.183 0 0
25-06-2020 10:50 75.1 % 23.003 -0.026 1.684 0 0
25-06-2020 10:40 75.6 % 23.016 61.318 -0.009 0 0
25-06-2020 10:30 73.9 % 23.843 26.424 -0.012 0 0
25-06-2020 10:20 73.7 % 23.47 87.442 0.113 0 0
25-06-2020 10:10 74.2 % 24.155 103.544 1.245 0 0
25-06-2020 10:00 76.4 % 23.651 59.114 0.357 0 0
25-06-2020 09:50 76.9 % 22.725 97.015 1.948 0 0
25-06-2020 09:40 76.8 % 22.817 38.475 1.29 0 0
25-06-2020 09:30 78 % 22.964 17.05 0.302 0 0
25-06-2020 09:20 78.7 % 22.633 35.82 2.344 0 0
25-06-2020 09:10 78.6 % 22.434 4.65 2.54 0 0
25-06-2020 09:00 82 % 22.581 10.03 2.96 0 0
25-06-2020 08:50 83.8 % 21.532 344.766 2.521 0 0
25-06-2020 08:40 84.9 % 21.191 8.063 1.903 0 0
25-06-2020 08:30 83.6 % 21.262 30.651 2.607 0 0
25-06-2020 08:20 82.7 % 21.362 272.787 1.126 0 0

I dati sono presentati in modo automatico a scopo informativo. In seguito a verifica i dati possono subire modifiche o essere invalidati e non riportati negli archivi definitivi.